Aérodrome :
LOGIN :

S'inscrire | Disclaimer

   EN    FR    IT 

 










Légende :    VFR   VFR Marginal   IFR   IFR Intensif   IFR Très Intensif
Visi : 
Plafond : 
>= 8 km
>= 3000ft
5 à 8 km
1000 à 3000 ft
1500m à 5 km
500 à 1000 ft
800 à 1500m
200 à 500 ft
< 800m
< 200 ft
Symboles :   Orages  Brouillard  Fortes neiges  Fortes précipitations  Vent > 20 kt
SIGMETs :   Divers  Orages  Givrage  Turbulence  Onde Orograph.  Cendres Volcan.







- Altitude de l'aérodrome : 392 ft
- Code IATA : CDG
- Voir les cartes d'approche


LFPG - Paris-Aeroport Charles De Gaulle

DERNIER METAR :
  • 220130Z 33003KT CAVOK 09/04 Q1028 NOSIG

METARs EXPIRÉS :
  • 220100Z 36004KT CAVOK 10/04 Q1028 NOSIG
  • 220030Z 36002KT CAVOK 10/04 Q1028 NOSIG
  • 220000Z 03004KT CAVOK 10/04 Q1028 NOSIG
  • 212330Z 04004KT CAVOK 11/04 Q1028 NOSIG
  • 212300Z 03005KT CAVOK 10/05 Q1028 NOSIG

TAF TAF LFPG
Valide du 22 à 00h jusqu'au 23 à 06h UTC


212300Z 2200/2306 01006KT CAVOK TX20/2215Z TN08/2204Z
ATIS : +33 1 48 62 10 92
Pas de NOTAMs connus pour ce terrain.



MET'MAP, la Météo Aéronautique d'un coup d'oeil ! - Copyright ORBIFLY Décembre 2007 - Disclaimer

ORBIFLY MET'MAP TEAM :

Programmation & Développement : Alexandra Zaïnal
Conception & Développement : Baudouin d'Aumeries
Co-Programmation & Développement : Marc-Olivier Méhu
Soutien technique & logistique : Manuel Goepfert

Contact : metmap@orbifly.com




SOURCES & CREDITS :

   NOAA